Flag for Australia Weather past 2 weeks in Mosman, New South Wales, Australia

Now
60 °F

Cool.


Feels Like: N/A
Forecast: 54 / 68 °F
Wind: N/A

Location: Sydney Regional Office

Current Time: Jul 24, 2014 at 11:13:55 PM

Latest Report: Jul 24, 2014 at 9:00 PM


Visibility: N/A

Pressure: 30.15 "Hg

Humidity: 67%

Dew point: 49 °F

Location of MosmanLocation

Historic Weather in Mosman — Graph

°F

Mosman temperature yesterday

Maximum temperature yesterday: 63 °F (at 2:00 PM)
Minimum temperature yesterday: 51 °F (at 2:00 AM)
Average temperature yesterday: 55 °F

Past Weeks' High & Low Weather Summary

 TemperatureHumidityPressure
High67 °F (Jul 24, 3:00 PM)91% (Jul 15, 2:00 AM)30.47 "Hg (Jul 15, 2:00 AM)
Low44 °F (Jul 12, 5:00 AM)31% (Jul 10, 2:00 PM)29.62 "Hg (Jul 10, 3:00 AM)
Average54 °F63%30.11 "Hg
* Reported Jul 9 11:00 PM — Jul 24 9:00 PM, Mosman, Weather by CustomWeather, © 2014

Note: Actual official high and low records may vary slightly from our data, if they occured in-between our weather recording intervals... More about our weather records

Advertising

Mosman weather history for previous 24 hours

 ConditionsComfort  
Time TempWeatherWind HumidityBarometerVisibility
9:00 PM
Jul 24
60 °FCool.N/A67%30.15 "HgN/A
8:00 PM60 °FCool.N/A63%30.13 "HgN/A
6:00 PM60 °FCool.N/A61%30.11 "HgN/A
5:00 PM62 °FRefreshingly cool.N/A57%30.10 "HgN/A
3:00 PM67 °FMild.N/A48%30.10 "HgN/A
2:00 PM62 °FRefreshingly cool.N/A59%30.11 "HgN/A
12:00 PM60 °FCool.N/A68%30.15 "HgN/A
11:00 AM58 °FCool.N/A73%30.18 "HgN/A
9:00 AM52 °FCool.N/A83%30.19 "HgN/A
8:00 AM49 °FCool.N/A88%30.19 "HgN/A
6:00 AM48 °FCool.N/A91%30.16 "HgN/A
5:00 AM48 °FCool.N/A90%30.15 "HgN/A
3:00 AM49 °FCool.N/A89%30.16 "HgN/A
2:00 AM50 °FCool.N/A88%30.16 "HgN/A
12:00 AM51 °FCool.N/A86%30.19 "HgN/A
11:00 PM
Jul 23
53 °FCool.N/A82%30.20 "HgN/A
Weather by CustomWeather, © 2014

See weather overviewHow to use our weather pages